Location: Newark
(45.5000°N, 11.4167°E)
Time: 03:45:08
(UTC+00:00)

Vanguard 3 - Pass Details

Date: 29 August 2019
Orbit: 508 x 3263 km, 33.4° (Epoch: 21 September)

Event Time Altitude Azimuth Distance (km) Brightness Sun altitude
Rises 12:08:40 0° 210° (SSW) 6,845 12.5 52.1°
Reaches altitude 10° 12:15:11 10° 198° (SSW) 5,432 12.2 51.6°
Maximum altitude 12:25:13 21° 157° (SSE) 3,712 11.2 50.9°
Drops below altitude 10° 12:32:28 10° 113° (ESE) 3,798 10.6 50.2°
Sets 12:35:55 0° 97° (E) 4,373 10.7 49.9°
